Latest Weather Observations for Browse Island

IDW60801

Issued at 1:23 pm WST Monday 30 March 2020 (issued every 10 minutes, with the page automatically refreshed every 10 minutes)

About weather observations | Map of weather stations | Latest weather observations for WA | Other Formats
Station Details ID: 200784 Name: BROWSE ISLAND Lat: -14.11 Lon: 123.55 Height: 3.7 m
Data from the previous 72 hours. | See also: Recent months at Browse Island
Date/Time
WST
Temp
°C
App
Temp
°C
Dew
Point
°C
Rel
Hum
%
Delta-T
°C
Wind Press
QNH
hPa
Press
MSL
hPa
Rain since
9am
mm
Dir  Spd
km/h
Gust
km/h
Spd
kts
Gust
kts
30/01:00pm 30.8 - - - - SW 11 - 6 - 1008.0 1008.4 -
30/12:30pm 31.0 - - - - SW 11 - 6 - 1008.0 - -
30/12:25pm 31.0 - - - - SW 11 - 6 - - 1008.7 -
30/12:00pm 30.9 - - - - SSW 13 - 7 - 1009.0 1009.4 -
30/11:30am 31.0 - - - - SSW 13 - 7 - 1009.0 - -
30/11:25am 30.9 - - - - SSW 13 - 7 - - 1009.7 -
30/11:00am 30.5 - - - - SSW 13 - 7 - 1010.0 1010.1 -
30/10:30am 31.0 - - - - SSW 15 - 8 - 1010.0 - -
30/10:25am 30.5 - - - - SSW 15 - 8 - - 1010.5 -
30/10:00am 30.5 - - - - SSW 13 - 7 - 1010.0 1010.7 -
30/09:30am 31.0 - - - - S 15 - 8 - 1011.0 - -
30/09:25am 30.6 - - - - S 15 - 8 - - 1011.0 -
30/09:00am 30.4 - - - - S 15 - 8 - 1011.0 1011.0 -
30/08:30am 30.0 - - - - SSW 15 - 8 - 1011.0 - -
30/08:25am 30.1 - - - - SSW 15 - 8 - - 1010.9 -
30/08:00am 30.0 - - - - SSW 15 - 8 - 1010.0 1010.8 -
30/07:30am 30.0 - - - - SSW 17 - 9 - 1010.0 - -
30/07:25am 29.8 - - - - SSW 15 - 8 - - 1010.3 -
30/07:00am 29.8 - - - - SW 11 - 6 - 1010.0 1010.0 -
30/06:30am 30.0 - - - - SW 13 - 7 - 1009.0 - -
30/06:25am 29.6 - - - - SW 13 - 7 - - 1009.6 -
30/06:00am 29.6 - - - - SW 13 - 7 - 1009.0 1009.2 -
30/05:30am 30.0 - - - - SSW 15 - 8 - 1009.0 - -
30/05:25am 29.6 - - - - SW 15 - 8 - - 1008.9 -
30/05:00am 29.6 - - - - SW 17 - 9 - 1008.0 1008.6 -
30/04:30am 30.0 - - - - SW 15 - 8 - 1008.0 - -
30/04:25am 29.6 - - - - SW 15 - 8 - - 1008.6 -
30/04:00am 29.6 - - - - SW 13 - 7 - 1008.0 1008.5 -
30/03:30am 30.0 - - - - SW 11 - 6 - 1008.0 - -
30/03:25am 29.5 - - - - SW 11 - 6 - - 1008.7 -
30/03:00am 29.5 - - - - SSW 13 - 7 - 1008.0 1008.6 -
30/02:30am 30.0 - - - - SW 13 - 7 - 1008.0 - -
30/02:25am 29.5 - - - - SW 13 - 7 - - 1008.5 -
30/02:00am 29.6 - - - - SW 13 - 7 - 1008.0 1008.7 -
30/01:30am 30.0 - - - - W 9 - 5 - 1009.0 - -
30/01:25am 29.6 - - - - WSW 9 - 5 - - 1008.9 -
30/01:00am 29.6 - - - - SW 11 - 6 - 1009.0 1009.2 -
30/12:30am 30.0 - - - - SSW 11 - 6 - 1009.0 - -
30/12:25am 29.6 - - - - SSW 11 - 6 - - 1009.5 -
30/12:00am 29.7 - - - - SSW 13 - 7 - 1009.0 1009.7 -
 
Date/Time
WST
Temp
°C
App
Temp
°C
Dew
Point
°C
Rel
Hum
%
Delta-T
°C
Wind Press
QNH
hPa
Press
MSL
hPa
Rain since
9am
mm
Dir  Spd
km/h
Gust
km/h
Spd
kts
Gust
kts
29/11:30pm 30.0 - - - - SW 13 - 7 - 1010.0 - -
29/11:25pm 29.9 - - - - SW 13 - 7 - - 1010.1 -
29/11:00pm 29.8 - - - - SW 13 - 7 - 1010.0 1010.2 -
29/10:30pm 30.0 - - - - SW 13 - 7 - 1010.0 - -
29/10:25pm 29.8 - - - - WSW 13 - 7 - - 1010.2 -
29/10:00pm 29.9 - - - - SW 15 - 8 - 1010.0 1010.4 -
29/09:30pm 30.0 - - - - SW 15 - 8 - 1010.0 - -
29/09:25pm 30.0 - - - - SW 15 - 8 - - 1010.3 -
29/09:00pm 30.1 - - - - WSW 15 - 8 - 1010.0 1010.1 -
29/08:30pm 30.0 - - - - SW 13 - 7 - 1010.0 - -
29/08:25pm 29.9 - - - - WSW 13 - 7 - - 1010.0 -
29/08:00pm 30.1 - - - - WSW 13 - 7 - 1009.0 1009.8 -
29/07:30pm 30.0 - - - - SW 13 - 7 - 1009.0 - -
29/07:25pm 30.2 - - - - SW 13 - 7 - - 1009.4 -
29/07:00pm 30.2 - - - - SW 11 - 6 - 1009.0 1009.4 -
29/06:30pm 30.0 - - - - SSW 15 - 8 - 1009.0 - -
29/06:25pm 30.3 - - - - SSW 15 - 8 - - 1009.2 -
29/06:00pm 30.4 - - - - SW 15 - 8 - 1009.0 1009.0 -
29/05:30pm 31.0 - - - - SW 13 - 7 - 1008.0 - -
29/05:25pm 30.6 - - - - SW 15 - 8 - - 1008.5 -
29/05:00pm 30.6 - - - - SW 17 - 9 - 1008.0 1008.2 -
29/04:30pm 31.0 - - - - SSW 15 - 8 - 1008.0 - -
29/04:25pm 30.5 - - - - SSW 15 - 8 - - 1008.0 -
29/04:00pm 30.6 - - - - S 17 - 9 - 1008.0 1007.9 -
29/03:30pm 31.0 - - - - S 17 - 9 - 1008.0 - -
29/03:25pm 30.7 - - - - S 15 - 8 - - 1007.9 -
29/03:00pm 30.5 - - - - S 17 - 9 - 1007.0 1007.7 -
29/02:30pm 31.0 - - - - SSW 19 - 10 - 1008.0 - -
29/02:25pm 30.6 - - - - SSW 19 - 10 - - 1008.0 -
29/02:00pm 30.7 - - - - SSW 20 - 11 - 1008.0 1008.1 -
29/01:30pm 31.0 - - - - SSW 19 - 10 - 1008.0 - -
29/01:25pm 30.6 - - - - SSW 19 - 10 - - 1008.4 -
29/01:00pm 30.5 - - - - SSW 20 - 11 - 1008.0 1008.7 -
29/12:30pm 31.0 - - - - SSW 19 - 10 - 1009.0 - -
29/12:25pm 30.5 - - - - SSW 19 - 10 - - 1009.1 -
29/12:00pm 30.6 - - - - SSW 17 - 9 - 1009.0 1009.4 -
29/11:30am 30.0 - - - - SW 15 - 8 - 1009.0 - -
29/11:25am 30.5 - - - - SSW 15 - 8 - - 1009.8 -
29/11:00am 30.5 - - - - SW 15 - 8 - 1010.0 1010.0 -
29/10:30am 31.0 - - - - SW 15 - 8 - 1010.0 - -
29/10:25am 30.8 - - - - SW 15 - 8 - - 1010.2 -
29/10:00am 30.4 - - - - SSW 15 - 8 - 1010.0 1010.4 -
29/09:30am 31.0 - - - - SSW 15 - 8 - 1010.0 - -
29/09:25am 30.1 - - - - SSW 15 - 8 - - 1010.9 -
29/09:00am 30.3 - - - - SSW 15 - 8 - 1011.0 1011.0 -
29/08:30am 30.0 - - - - SSW 17 - 9 - 1010.0 - -
29/08:25am 30.1 - - - - SSW 17 - 9 - - 1010.7 -
29/08:00am 30.1 - - - - SW 17 - 9 - 1010.0 1010.4 -
29/07:30am 30.0 - - - - SW 19 - 10 - 1010.0 - -
29/07:25am 29.8 - - - - SW 17 - 9 - - 1010.1 -
29/07:00am 29.7 - - - - SW 17 - 9 - 1009.0 1009.8 -
29/06:30am 30.0 - - - - WSW 19 - 10 - 1009.0 - -
29/06:25am 29.8 - - - - SW 19 - 10 - - 1009.3 -
29/06:00am 29.8 - - - - SW 19 - 10 - 1009.0 1009.2 -
29/05:30am 30.0 - - - - SW 19 - 10 - 1009.0 - -
29/05:25am 30.1 - - - - WSW 19 - 10 - - 1009.3 -
29/05:00am 30.0 - - - - WSW 17 - 9 - 1009.0 1009.0 -
29/04:30am 30.0 - - - - WSW 17 - 9 - 1008.0 - -
29/04:25am 29.9 - - - - WSW 17 - 9 - - 1008.7 -
29/04:00am 29.8 - - - - WSW 17 - 9 - 1008.0 1008.6 -
29/03:30am 30.0 - - - - SW 13 - 7 - 1008.0 - -
29/03:25am 29.9 - - - - SW 13 - 7 - - 1008.5 -
29/03:00am 29.9 - - - - WSW 11 - 6 - 1008.0 1008.5 -
29/02:30am 30.0 - - - - WSW 11 - 6 - 1008.0 - -
29/02:25am 29.9 - - - - WSW 11 - 6 - - 1008.5 -
29/02:00am 29.9 - - - - WSW 11 - 6 - 1008.0 1008.5 -
29/01:30am 30.0 - - - - WSW 11 - 6 - 1008.0 - -
29/01:25am 30.0 - - - - WSW 11 - 6 - - 1008.8 -
29/01:00am 30.0 - - - - SW 11 - 6 - 1009.0 1008.9 -
29/12:30am 30.0 - - - - SW 17 - 9 - 1009.0 - -
29/12:25am 30.1 - - - - SW 17 - 9 - - 1009.2 -
29/12:00am 30.0 - - - - SW 17 - 9 - 1009.0 1009.5 -
 
Date/Time
WST
Temp
°C
App
Temp
°C
Dew
Point
°C
Rel
Hum
%
Delta-T
°C
Wind Press
QNH
hPa
Press
MSL
hPa
Rain since
9am
mm
Dir  Spd
km/h
Gust
km/h
Spd
kts
Gust
kts
28/11:30pm 30.0 - - - - SSW 19 - 10 - 1009.0 - -
28/11:25pm 30.1 - - - - SSW 19 - 10 - - 1009.6 -
28/11:00pm 30.2 - - - - SSW 15 - 8 - 1009.0 1009.6 -
28/10:30pm 30.0 - - - - SSW 15 - 8 - 1009.0 - -
28/10:25pm 30.1 - - - - SSW 15 - 8 - - 1009.7 -
28/10:00pm 30.1 - - - - SSW 13 - 7 - 1010.0 1009.9 -
28/09:30pm 30.0 - - - - SSW 13 - 7 - 1010.0 - -
28/09:25pm 30.1 - - - - SSW 13 - 7 - - 1010.0 -
28/09:00pm 30.0 - - - - SSW 11 - 6 - 1009.0 1009.8 -
28/08:30pm 30.0 - - - - WSW 9 - 5 - 1009.0 - -
28/08:25pm 30.1 - - - - WSW 7 - 4 - - 1009.5 -
28/08:00pm 30.1 - - - - SSW 13 - 7 - 1009.0 1009.5 -
28/07:30pm 30.0 - - - - S 17 - 9 - 1009.0 - -
28/07:25pm 30.1 - - - - S 17 - 9 - - 1009.5 -
28/07:00pm 30.2 - - - - S 17 - 9 - 1009.0 1009.3 -
28/06:30pm 30.0 - - - - S 13 - 7 - 1008.0 - -
28/06:25pm 30.1 - - - - S 15 - 8 - - 1008.8 -
28/06:00pm 30.2 - - - - S 17 - 9 - 1008.0 1008.7 -
28/05:30pm 30.0 - - - - S 15 - 8 - 1008.0 - -
28/05:25pm 30.3 - - - - S 15 - 8 - - 1008.7 -
28/05:00pm 30.4 - - - - S 17 - 9 - 1008.0 1008.6 -
28/04:30pm 30.0 - - - - SSW 19 - 10 - 1008.0 - -
28/04:25pm 30.3 - - - - SSW 19 - 10 - - 1008.0 -
28/04:00pm 30.3 - - - - SSW 17 - 9 - 1007.0 1007.8 -
28/03:30pm 30.0 - - - - S 17 - 9 - 1008.0 - -
28/03:25pm 30.3 - - - - S 17 - 9 - - 1007.9 -
28/03:00pm 30.5 - - - - S 19 - 10 - 1008.0 1008.3 -
28/02:30pm 30.0 - - - - S 17 - 9 - 1008.0 - -
28/02:25pm 30.7 - - - - S 19 - 10 - - 1008.4 -
28/02:00pm 30.3 - - - - S 19 - 10 - 1008.0 1008.6 -
28/01:30pm 31.0 - - - - S 17 - 9 - 1009.0 - -
28/01:25pm 30.6 - - - - S 17 - 9 - - 1009.2 -
28/01:00pm 30.9 - - - - S 17 - 9 - 1009.0 1009.6 -
28/12:30pm 30.0 - - - - S 19 - 10 - 1010.0 - -
28/12:25pm 30.2 - - - - S 17 - 9 - - 1010.0 -
28/12:00pm 30.2 - - - - S 17 - 9 - 1010.0 1010.4 -
28/11:30am 30.0 - - - - S 17 - 9 - 1011.0 - -
28/11:25am 30.4 - - - - S 17 - 9 - - 1010.9 -
28/11:00am 30.3 - - - - S 17 - 9 - 1011.0 1011.1 -
28/10:30am 31.0 - - - - S 15 - 8 - 1011.0 - -
28/10:25am 30.4 - - - - S 15 - 8 - - 1011.6 -
28/10:00am 30.2 - - - - S 15 - 8 - 1012.0 1011.9 -
28/09:30am 30.0 - - - - S 13 - 7 - 1012.0 - -
28/09:25am 30.5 - - - - S 13 - 7 - - 1012.1 -
28/09:00am 30.3 - - - - S 11 - 6 - 1012.0 1012.2 -
28/08:30am 31.0 - - - - S 11 - 6 - 1012.0 - -
28/08:25am 30.2 - - - - S 11 - 6 - - 1012.2 -
28/08:00am 30.0 - - - - S 11 - 6 - 1012.0 1011.9 -
28/07:30am 30.0 - - - - S 11 - 6 - 1011.0 - -
28/07:25am 29.8 - - - - S 11 - 6 - - 1011.7 -
28/07:00am 29.8 - - - - S 9 - 5 - 1011.0 1011.6 -
28/06:30am 30.0 - - - - S 9 - 5 - 1011.0 - -
28/06:25am 29.6 - - - - SSW 9 - 5 - - 1011.2 -
28/06:00am 29.5 - - - - SSW 7 - 4 - 1011.0 1011.0 -
28/05:30am 30.0 - - - - CALM 0 - 0 - 1010.0 - -
28/05:25am 29.7 - - - - CALM 0 - 0 - - 1010.6 -
28/05:00am 29.5 - - - - CALM 0 - 0 - 1010.0 1010.4 -
28/04:30am 29.0 - - - - W 6 - 3 - 1010.0 - -
28/04:25am 29.4 - - - - W 6 - 3 - - 1010.2 -
28/04:00am 29.3 - - - - W 7 - 4 - 1010.0 1010.1 -
28/03:30am 29.0 - - - - W 7 - 4 - 1010.0 - -
28/03:25am 29.3 - - - - WNW 7 - 4 - - 1010.1 -
28/03:00am 29.3 - - - - WNW 7 - 4 - 1010.0 1010.0 -
28/02:30am 29.0 - - - - NW 7 - 4 - 1010.0 - -
28/02:25am 29.3 - - - - NW 9 - 5 - - 1010.3 -
28/02:00am 29.4 - - - - WNW 6 - 3 - 1010.0 1010.6 -
28/01:30am 30.0 - - - - WNW 6 - 3 - 1010.0 - -
28/01:25am 29.5 - - - - NNW 2 - 1 - - 1010.8 -
28/01:00am 29.5 - - - - CALM 0 - 0 - 1011.0 1011.0 -
28/12:30am 29.0 - - - - CALM 0 - 0 - 1011.0 - -
28/12:25am 29.5 - - - - CALM 0 - 0 - - 1011.2 -
28/12:00am 29.6 - - - - CALM 0 - 0 - 1011.0 1011.4 -
 
Date/Time
WST
Temp
°C
App
Temp
°C
Dew
Point
°C
Rel
Hum
%
Delta-T
°C
Wind Press
QNH
hPa
Press
MSL
hPa
Rain since
9am
mm
Dir  Spd
km/h
Gust
km/h
Spd
kts
Gust
kts
27/11:30pm 30.0 - - - - N 7 - 4 - 1011.0 - -
27/11:25pm 29.6 - - - - N 4 - 2 - - 1011.7 -
27/11:00pm 29.6 - - - - N 7 - 4 - 1011.0 1011.8 -
27/10:30pm 29.8 - - - - N 7 11 4 6 1012.1 1012.0 -
27/10:25pm 29.8 - - - - N 9 - 5 - - 1012.0 -
27/10:00pm 29.9 - - - - N 11 - 6 - 1012.0 1012.0 -
27/09:30pm 30.0 - - - - N 9 - 5 - 1012.0 - -
27/09:25pm 29.9 - - - - N 7 - 4 - - 1011.9 -
27/09:00pm 29.9 - - - - NNE 9 - 5 - 1012.0 1011.9 -
27/08:30pm 30.0 - - - - N 11 - 6 - 1011.0 - -
27/08:25pm 30.0 - - - - N 9 - 5 - - 1011.5 -
27/08:00pm 29.9 - - - - NNE 9 - 5 - 1011.0 1011.1 -
27/07:30pm 30.0 - - - - NNE 7 - 4 - 1010.0 - -
27/07:25pm 30.0 - - - - NNE 7 - 4 - - 1010.7 -
27/07:00pm 30.0 - - - - NE 9 - 5 - 1010.0 1010.3 -
27/06:30pm 30.0 - - - - NNE 9 - 5 - 1009.0 - -
27/06:25pm 30.0 - - - - NNE 7 - 4 - - 1009.6 -
27/06:00pm 30.1 - - - - NNE 7 - 4 - 1009.0 1009.4 -
27/05:30pm 30.0 - - - - NNE 6 - 3 - 1009.0 - -
27/05:25pm 30.4 - - - - NE 7 - 4 - - 1009.2 -
27/05:00pm 30.6 - - - - ENE 9 - 5 - 1009.0 1009.2 -
27/04:30pm 32.0 - - - - E 9 - 5 - 1009.0 - -
27/04:25pm 31.1 - - - - ESE 9 - 5 - - 1009.2 -
27/04:00pm 31.3 - - - - E 9 - 5 - 1009.0 1009.2 -
27/03:30pm 31.0 - - - - ESE 13 - 7 - 1009.0 - -
27/03:25pm 31.1 - - - - E 15 - 8 - - 1009.3 -
27/03:00pm 31.4 - - - - ESE 13 - 7 - 1009.0 1009.2 -
27/02:30pm 31.0 - - - - E 13 - 7 - 1009.0 - -
27/02:25pm 31.2 - - - - E 13 - 7 - - 1009.3 -
27/02:00pm 31.6 - - - - E 13 - 7 - 1009.0 1009.4 -
27/01:30pm 32.0 - - - - E 15 - 8 - 1009.0 - -
27/01:25pm 31.3 - - - - E 17 - 9 - - 1009.5 -

Other formats

Comma delimited format used in spreadsheet applications
http://www.bom.gov.au/fwo/IDW60801/IDW60801.94103.axf

JavaScript Object Notation format (JSON) in row-major order
http://www.bom.gov.au/fwo/IDW60801/IDW60801.94103.json

Data quality

Most of these data are generated automatically and are frequently updated. Quality checks on data are not normally performed. It is possible for incorrect values to appear. Refer to information at About Latest Weather Observations and please check the disclaimer before using these data.